This is the latest recevied weather packets stored in our database for station/object HK6REC-25. If no packets are shown the sender has not sent any weather packets the latest 10 day(s).
| Time | Temp. | Humidity | Pressure | Rain* | Wind** | Luminosity | Snow |
|---|---|---|---|---|---|---|---|
| 1778144766 | 12.22° C | 88% | 1015 hPa | 0 mm | - | - | - |
| 1778142965 | 13.33° C | 88% | 1014 hPa | 0 mm | - | - | - |
| 1778141164 | 14.44° C | 88% | 1015 hPa | 0 mm | - | - | - |
| 1778139363 | 12.78° C | 93% | 1014 hPa | 0 mm | - | - | - |
| 1778137562 | 13.89° C | 93% | 1015 hPa | 0 mm | - | - | - |
| 1778135761 | 15° C | 93% | 1015 hPa | 0 mm | - | - | - |
| 1778133960 | 13.33° C | 91% | 1015 hPa | 0 mm | - | - | - |
| 1778132159 | 14.44° C | 91% | 1015 hPa | 0 mm | - | - | - |
| 1778130358 | 13.33° C | 88% | 1016 hPa | 0 mm | - | - | - |
| 1778128557 | 14.44° C | 88% | 1016 hPa | 0 mm | - | - | - |
| 1778126756 | 13.33° C | 83% | 1016 hPa | 0 mm | - | - | - |
| 1778124955 | 14.44° C | 83% | 1016 hPa | 0 mm | - | - | - |
| 1778123154 | 15.56° C | 83% | 1016 hPa | 0 mm | - | - | - |
| 1778121353 | 13.89° C | 82% | 1015 hPa | 0 mm | - | - | - |
| 1778119551 | 15° C | 82% | 1015 hPa | 0 mm | - | - | - |
| 1778117751 | 14.44° C | 83% | 1014 hPa | 0 mm | - | - | - |
| 1778115950 | 14.44° C | 85% | 1014 hPa | 0 mm | - | - | - |
| 1778114149 | 14.44° C | 76% | 1014 hPa | 0 mm | - | - | - |
| 1778112348 | 15° C | 75% | 1013 hPa | 0 mm | - | - | - |
| 1778110547 | 16.11° C | 75% | 1012 hPa | 0 mm | - | - | - |
| 1778108746 | 16.11° C | 74% | 1011 hPa | 0 mm | - | - | - |
| 1778106945 | 17.22° C | 74% | 1011 hPa | 0 mm | - | - | - |
| 1778105145 | 18.33° C | 74% | 1010 hPa | 0 mm | - | - | - |
| 1778103344 | 19.44° C | 74% | 1010 hPa | 0 mm | - | - | - |
| 1778101543 | 20.56° C | 74% | 1009 hPa | 0 mm | - | - | - |
* Rain latest hour (hover to see other rain measurements)
** Current wind speed in m/s (hover to see current wind gust speed)